Location: Apollinopolis Magna
(24.9792°N, 32.8772°E)
Time: 18:18:17
(UTC+00:00)

CZ-4B R/B - Pass Details

Date: 02 March 2021
Orbit: 388 x 455 km, 97.6° (Epoch: 10 April)

Event Time Altitude Azimuth Distance (km) Brightness Sun altitude
Rises 16:23:32 0° 352° (N) 2,285 5.0 -8.1°
Reaches altitude 10° 16:25:50 10° 334° (NNW) 1,434 4.3 -8.6°
Maximum altitude 16:28:06 19° 285° (WNW) 1,008 4.3 -9.1°
Drops below altitude 10° 16:30:24 10° 237° (WSW) 1,448 5.0 -9.7°
Sets 16:32:44 0° 219° (SW) 2,317 5.7 -10.2°
